Regional Weather Roundup
Issued by NWS

Home | Current Version | Previous Version | Text Only | Print | Product List | Glossary Off
Versions: 1 2 3 4 5 6 7 8 9 10 11 12 13 14 15 16 17 18 19 20 21 22 23 24 25 26 27 28 29 30 31 32 33 34 35 36 37 38 39 40 41 42 43 44 45 46 47 48 49 50

000
ASUS44 KMEG 201310
RWRTN
TENNESSEE HOURLY STATE WEATHER ROUNDUP
NATIONAL WEATHER SERVICE MEMPHIS TN
800 AM CDT WED SEP 20 2017

TNZ002-004-019-021-049-052-054-088>092-201400-
WEST TENNESSEE

CITY           SKY/WX    TMP DP  RH WIND       PRES   REMARKS
MEMPHIS INTL   MOSUNNY   76  72  87 S7        29.98R
NWS MEMPHIS      N/A     74 N/A N/A MISG        N/A
JACKSON        MOSUNNY   74  72  93 S5        30.01R
DYERSBURG      SUNNY     74  71  91 S3        29.99R
SOMERVILLE     MOSUNNY   73  72  94 S5        29.99R
COVINGTON      SUNNY     73  72  94 CALM      29.99R
BOLIVAR        MOSUNNY   72  70  94 SE5       30.00R
PARIS          SUNNY     72  70  94 S7        30.00R
HUNTINGDON     SUNNY     72  70  94 CALM      30.00R
LEXINGTON      SUNNY     72  70  94 CALM      30.02R
SELMER         MOSUNNY   73  70  88 S3        30.02R
SAVANNAH       SUNNY     72  70  94 S5        30.01R
$$

TNZ008-025-027-028-033-062-065-066-201400-
NORTH MIDDLE TENNESSEE

CITY           SKY/WX    TMP DP  RH WIND       PRES   REMARKS
NASHVILLE      MOSUNNY   72  67  84 S3        30.05R
PORTLAND       SUNNY     70  68  94 S3        30.04R
CLARKSVILLE    SUNNY     70  67  90 SE3       30.02R
SMYRNA         MOSUNNY   70  66  88 S6        30.05R
COOKEVILLE     MOSUNNY   66  64  94 CALM      30.07R
GALLATIN       SUNNY     66  66 100 CALM      30.07R
CROSSVILLE     SUNNY     66  64  93 CALM      30.11R
$$

TNZ061-075-076-078-094-096-097-201400-
SOUTH MIDDLE TENNESSEE

CITY           SKY/WX    TMP DP  RH WIND       PRES   REMARKS
FAYETTEVILLE   SUNNY     68  66  94 S5        30.05
TULLAHOMA      SUNNY     66  64  94 CALM      30.08R
WINCHESTER     SUNNY     68  66  94 CALM        N/A
MCMINNVILLE    SUNNY     64  64 100 CALM      30.08R
COLUMBIA       MOSUNNY   70  70 100 CALM      30.02R
SHELBYVILLE    SUNNY     68  66  94 E3        30.05R
$$

TNZ017-018-042-046-047-201400-
NORTHEAST TENNESSEE

CITY           SKY/WX    TMP DP  RH WIND       PRES   REMARKS
TRI CITIES     MOSUNNY   65  63  93 CALM      30.11R
ELIZABETHTON   SUNNY     66  61  82 CALM      30.11S
$$

TNZ012-013-036-069-073-074-201400-
CENTRAL EAST TENNESSEE

CITY           SKY/WX    TMP DP  RH WIND       PRES   REMARKS
KNOXVILLE      MOSUNNY   64  62  93 CALM      30.07R
OAK RIDGE      FOG       63  62  97 CALM      30.10R VSB 1/4
DOWNTOWN KNOXV CLOUDY    64  64 100 CALM      30.08R
GATLINBURG     SUNNY     63  59  88 CALM      30.08S
MORRISTOWN     SUNNY     66  63  88 CALM      30.09R
JACKSBORO      FOG       63  63 100 CALM      30.12R VSB 0
$$

TNZ083-085-099-201400-
SOUTHEAST TENNESSEE

CITY           SKY/WX    TMP DP  RH WIND       PRES   REMARKS
CHATTANOOGA    FOG       66  65  96 CALM      30.07R VSB 1/2
DAYTON         FOG       64  64 100 CALM      30.07R VSB 0
$$

SKY/WX REPORTED AS FAIR MEANS FEW OR NO CLOUDS BELOW
12 THOUSAND FEET.





USA.gov is the U.S. government's official web portal to all federal, state and local government web resources and services.